"Timestamp","TZ","WindDir_Mean (deg)","WindSpd_Mean (km/h)","WindSpd_Min (km/h)","WindSpd_Max (km/h)","Temp_Mean (deg)","RH_Mean (%)","MSLP_Mean (hPa)","Rain_Acc (mm)","Rain_Intensity (mm/h)","Hail_Acc (hits/cm2)","Hail_Intensity (hits/cm2hr)","Solar_Mean (W/m2)"
2020/04/22 00:00:00.011,n,61,1.44,0.72,2.52,21,72.9,1019.02,0,0,0,0,0.028725
2020/04/22 00:01:00.000,n,50,2.52,0.72,3.24,21,72.7,1019.02,0,0,0,0,0.036545
2020/04/22 00:02:00.000,n,187,0.36,0,0.36,20.9,72.6,1019.02,0,0,0,0,0.030441
2020/04/22 00:03:00.000,n,65,1.8,1.44,2.16,20.9,72.5,1019.02,0,0,0,0,0.031319
2020/04/22 00:04:00.000,n,337,0.36,0,0.72,20.9,72.6,1018.92,0,0,0,0,0.032158
2020/04/22 00:05:00.000,n,44,1.44,0.72,1.8,20.9,72.8,1018.92,0,0,0,0,0.031319
2020/04/22 00:06:00.009,n,30,0.72,0.36,1.44,20.9,72.6,1019.02,0,0,0,0,0.029564
2020/04/22 00:07:00.006,n,5,1.44,1.44,1.44,20.9,73.3,1019.02,0,0,0,0,0.031319
2020/04/22 00:08:00.003,n,115,0.72,0.36,1.44,20.9,73.5,1019.02,0,0,0,0,0.037384
2020/04/22 00:09:00.017,n,190,1.44,1.44,1.8,21,73.1,1019.02,0,0,0,0,0.033951
2020/04/22 00:10:00.000,n,285,0.72,0.36,1.08,20.9,73,1019.02,0,0,0,0,0.032158
2020/04/22 00:11:00.000,n,190,0.72,0.36,1.08,20.9,73,1019.02,0,0,0,0,0.031319
2020/04/22 00:12:00.000,n,120,0.72,0.36,1.08,20.9,73.2,1019.02,0,0,0,0,0.033951
2020/04/22 00:13:00.006,n,318,0.36,0.36,1.08,20.9,73.2,1019.02,0,0,0,0,0.033951
2020/04/22 00:14:00.003,n,83,0.72,0.36,1.44,20.9,73.2,1019.02,0,0,0,0,0.033073
2020/04/22 00:15:00.000,n,299,0.72,0.36,1.08,21,73.3,1019.02,0,0,0,0,0.035667
2020/04/22 00:16:00.000,n,133,1.44,0.72,2.16,21,73.2,1019.02,0,0,0,0,0.03479
2020/04/22 00:17:00.011,n,137,2.52,1.8,2.52,21,72.7,1019.02,0,0,0,0,0.033951
2020/04/22 00:18:00.009,n,142,2.16,2.16,2.52,20.9,72.3,1019.02,0,0,0,0,0.033073
2020/04/22 00:19:00.000,n,137,2.52,2.16,2.88,20.8,72.7,1019.02,0,0,0,0,0.029564
2020/04/22 00:20:00.001,n,150,2.52,1.8,2.88,20.8,73.1,1019.02,0,0,0,0,0.033073
2020/04/22 00:21:00.000,n,152,2.16,1.8,2.52,20.8,73.5,1019.02,0,0,0,0,0.027809
2020/04/22 00:22:00.000,n,149,1.08,0.36,2.16,20.8,73.7,1019.02,0,0,0,0,0.0383
2020/04/22 00:23:00.000,n,157,1.44,1.44,1.8,20.7,73.5,1019.02,0,0,0,0,0.035667
2020/04/22 00:24:00.007,n,131,0.72,0.36,0.72,20.7,73.1,1018.92,0,0,0,0,0.028725
2020/04/22 00:25:00.005,n,155,1.44,1.08,1.8,20.7,73,1018.92,0,0,0,0,0.03479
2020/04/22 00:26:00.002,n,131,1.44,1.08,1.8,20.7,73.3,1018.92,0,0,0,0,0.031319
2020/04/22 00:27:00.015,n,76,0.36,0.36,0.72,20.7,73.5,1018.92,0,0,0,0,0.029564
2020/04/22 00:28:00.000,n,120,1.44,1.08,1.8,20.7,73.6,1018.82,0,0,0,0,0.030441
2020/04/22 00:29:00.000,n,62,1.44,1.08,1.8,20.7,73.7,1018.82,0,0,0,0,0.035667
2020/04/22 00:30:00.000,n,85,1.44,0.72,1.8,20.7,73.8,1018.82,0,0,0,0,0.03479
2020/04/22 00:31:00.004,n,52,1.08,0.72,1.8,20.7,73.8,1018.82,0,0,0,0,0.037384
2020/04/22 00:32:00.001,n,111,1.08,0.36,1.44,20.7,73.8,1018.82,0,0,0,0,0.033951
2020/04/22 00:33:00.000,n,145,2.16,1.8,2.52,20.8,74,1018.82,0,0,0,0,0.033951
2020/04/22 00:34:00.011,n,152,2.52,2.16,2.88,20.8,74.4,1018.82,0,0,0,0,0.033073
2020/04/22 00:35:00.008,n,183,2.88,2.52,3.24,20.7,74.8,1018.82,0,0,0,0,0.032158
2020/04/22 00:36:00.005,n,165,3.96,3.96,3.96,20.7,75.2,1018.82,0,0,0,0,0.032158
2020/04/22 00:37:00.000,n,175,3.24,2.88,3.6,20.7,75.4,1018.82,0,0,0,0,0.02697
2020/04/22 00:38:00.000,n,194,2.52,2.16,3.24,20.6,75.4,1018.82,0,0,0,0,0.032158
2020/04/22 00:39:00.000,n,180,2.16,2.16,2.52,20.6,75.3,1018.82,0,0,0,0,0.029564
2020/04/22 00:40:00.000,n,240,1.8,1.8,2.16,20.6,75.4,1018.82,0,0,0,0,0.030441
2020/04/22 00:41:00.008,n,275,1.08,0.36,1.08,20.6,75.4,1018.82,0,0,0,0,0.029564
2020/04/22 00:42:00.005,n,228,0.72,0.72,0.72,20.6,75.5,1018.82,0,0,0,0,0.036545
2020/04/22 00:43:00.002,n,273,1.08,1.08,1.44,20.6,75.5,1018.82,0,0,0,0,0.032158
2020/04/22 00:44:00.000,n,230,1.08,0.72,1.08,20.5,75.2,1018.82,0,0,0,0,0.03479
2020/04/22 00:45:00.013,n,250,1.44,0.72,2.16,20.5,75.2,1018.82,0,0,0,0,0.030441
2020/04/22 00:46:00.000,n,219,2.16,1.8,2.52,20.5,75,1018.82,0,0,0,0,0.031319
2020/04/22 00:47:00.000,n,183,1.08,0,1.8,20.5,75,1018.82,0,0,0,0,0.027809
2020/04/22 00:48:00.006,n,237,2.16,1.8,2.88,20.5,74.8,1018.82,0,0,0,0,0.030441
2020/04/22 00:49:00.003,n,245,2.52,2.16,2.52,20.5,74.7,1018.92,0,0,0,0,0.02697
2020/04/22 00:50:00.000,n,214,1.8,1.44,2.16,20.4,74.8,1018.82,0,0,0,0,0.030441
2020/04/22 00:51:00.000,n,243,0.36,0,0.36,20.4,75,1018.82,0,0,0,0,0.029564
2020/04/22 00:52:00.009,n,188,1.08,0.72,1.44,20.4,75.1,1018.82,0,0,0,0,0.029564
2020/04/22 00:53:00.007,n,234,1.08,0.36,1.8,20.4,75.2,1018.82,0,0,0,0,0.030441
2020/04/22 00:54:00.003,n,206,0.72,0.72,1.08,20.5,75.2,1018.82,0,0,0,0,0.029564
2020/04/22 00:55:00.001,n,110,1.8,1.44,2.52,20.5,75.1,1018.72,0,0,0,0,0.027809
2020/04/22 00:56:00.000,n,76,0.72,0,1.08,20.5,75,1018.72,0,0,0,0,0.033951
2020/04/22 00:57:00.000,n,159,2.16,2.16,2.16,20.5,75,1018.72,0,0,0,0,0.022583
2020/04/22 00:58:00.000,n,150,2.88,2.88,2.88,20.4,75.3,1018.72,0,0,0,0,0.023499
2020/04/22 00:59:00.004,n,150,2.88,2.88,3.24,20.4,75.5,1018.72,0,0,0,0,0.026093
2020/04/22 01:00:00.001,n,156,3.24,2.52,3.6,20.4,75.6,1018.62,0,0,0,0,0.023499
2020/04/22 01:01:00.000,n,143,2.52,2.52,2.88,20.3,75.9,1018.62,0,0,0,0,0.023499
2020/04/22 01:02:00.012,n,161,1.8,1.44,1.8,20.3,76.1,1018.62,0,0,0,0,0.022583
2020/04/22 01:03:00.009,n,164,2.52,1.8,2.88,20.3,76.1,1018.62,0,0,0,0,0.026093
2020/04/22 01:04:00.000,n,176,2.52,1.8,2.88,20.3,76.4,1018.62,0,0,0,0,0.025215
2020/04/22 01:05:00.003,n,162,3.6,2.88,3.6,20.2,76.6,1018.62,0,0,0,0,0.022583
2020/04/22 01:06:00.001,n,158,3.6,1.44,5.04,20.2,76.6,1018.62,0,0,0,0,0.019989
2020/04/22 01:07:00.000,n,166,4.68,3.96,5.4,20.2,76.5,1018.62,0,0,0,0,0.023499
2020/04/22 01:08:00.000,n,183,4.68,4.32,5.04,20.1,76.5,1018.62,0,0,0,0,0.017395
2020/04/22 01:09:00.008,n,177,4.68,3.96,6.12,20.1,76.3,1018.62,0,0,0,0,0.020866
2020/04/22 01:10:00.006,n,169,4.32,3.96,4.32,20.1,76.4,1018.62,0,0,0,0,0.022659
2020/04/22 01:11:00.000,n,173,4.68,4.68,5.4,20.1,76.4,1018.62,0,0,0,0,0.027885
2020/04/22 01:12:00.013,n,164,3.96,3.6,4.32,20.1,76.3,1018.62,0,0,0,0,0.025253
2020/04/22 01:13:00.000,n,324,0.36,0,0.72,20.1,76.5,1018.62,0,0,0,0,0.027008
2020/04/22 01:14:00.000,n,292,1.08,0.36,1.8,20.1,76.4,1018.62,0,0,0,0,0.029602
2020/04/22 01:15:00.004,n,125,0.72,0.36,0.72,20.1,76.5,1018.62,0,0,0,0,0.024376
2020/04/22 01:16:00.001,n,295,1.44,0.72,2.16,20.1,76.5,1018.62,0,0,0,0,0.027008
2020/04/22 01:17:00.000,n,94,0.36,0.36,0.36,20.1,76.5,1018.62,0,0,0,0,0.025253
2020/04/22 01:18:00.000,n,157,0.72,0.36,0.72,20.1,76.4,1018.62,0,0,0,0,0.030479
2020/04/22 01:19:00.010,n,219,1.08,0.72,1.08,20.1,76.4,1018.62,0,0,0,0,0.027885
2020/04/22 01:20:00.007,n,170,0.36,0.36,0.72,20.1,76.4,1018.62,0,0,0,0,0.027008
2020/04/22 01:21:00.004,n,262,1.44,1.08,1.44,20.1,76.4,1018.62,0,0,0,0,0.027885
2020/04/22 01:22:00.002,n,347,1.08,0.36,1.44,20.1,76.5,1018.52,0,0,0,0,0.025253
2020/04/22 01:23:00.000,n,259,0.72,0.72,1.08,20,76.5,1018.52,0,0,0,0,0.025253
2020/04/22 01:24:00.000,n,255,0.72,0.72,1.08,20,76.4,1018.52,0,0,0,0,0.028725
2020/04/22 01:25:00.000,n,313,1.08,0.36,1.44,20,76.5,1018.52,0,0,0,0,0.021744
2020/04/22 01:26:00.005,n,10,0.36,0.36,1.08,20,76.4,1018.52,0,0,0,0,0.027885
2020/04/22 01:27:00.002,n,263,1.08,0.72,1.8,20,76.4,1018.52,0,0,0,0,0.021744
2020/04/22 01:28:00.000,n,218,1.08,1.08,1.44,20,76.4,1018.52,0,0,0,0,0.022659
2020/04/22 01:29:00.012,n,235,1.44,1.44,1.8,20,76.3,1018.52,0,0,0,0,0.020905
2020/04/22 01:30:00.009,n,242,1.44,1.44,1.8,20,76.2,1018.52,0,0,0,0,0.024376
2020/04/22 01:31:00.000,n,270,1.08,0.72,1.44,19.9,76.2,1018.52,0,0,0,0,0.021744
2020/04/22 01:32:00.003,n,212,0.72,0.36,0.72,19.9,76.1,1018.52,0,0,0,0,0.021744
2020/04/22 01:33:00.000,n,257,1.44,1.08,1.44,19.9,76.1,1018.52,0,0,0,0,0.025253
2020/04/22 01:34:00.000,n,262,1.08,0.72,1.08,19.9,76,1018.52,0,0,0,0,0.020027
2020/04/22 01:35:00.000,n,304,0.72,0.36,1.08,19.9,76,1018.52,0,0,0,0,0.023537
2020/04/22 01:36:00.007,n,278,1.44,1.08,1.44,19.9,75.8,1018.42,0,0,0,0,0.020905
2020/04/22 01:37:00.005,n,250,0.72,0.72,1.08,19.9,75.7,1018.42,0,0,0,0,0.031319
2020/04/22 01:38:00.002,n,303,1.44,1.08,2.52,19.9,75.8,1018.42,0,0,0,0,0.034828
2020/04/22 01:39:00.016,n,205,0.36,0.36,0.72,19.9,75.8,1018.42,0,0,0,0,0.030479
2020/04/22 01:40:00.000,n,256,1.44,0.72,2.16,19.9,75.6,1018.42,0,0,0,0,0.034828
2020/04/22 01:41:00.000,n,305,1.08,0,1.8,19.9,75.6,1018.42,0,0,0,0,0.030479
2020/04/22 01:42:00.000,n,258,1.44,1.44,1.44,20,75.3,1018.42,0,0,0,0,0.033073
2020/04/22 01:43:00.005,n,227,2.16,1.8,2.16,20,75.2,1018.42,0,0,0,0,0.029602
2020/04/22 01:44:00.001,n,199,1.08,1.08,1.44,20,75.1,1018.32,0,0,0,0,0.033073
2020/04/22 01:45:00.000,n,238,0.72,0.72,1.08,20,74.9,1018.32,0,0,0,0,0.030479
2020/04/22 01:46:00.011,n,259,0.36,0,0.72,20,74.9,1018.32,0,0,0,0,0.033073
2020/04/22 01:47:00.008,n,72,0.72,0.36,1.44,20,75,1018.22,0,0,0,0,0.031319
2020/04/22 01:48:00.005,n,33,1.08,0.72,2.52,20,75.1,1018.22,0,0,0,0,0.031319
2020/04/22 01:49:00.000,n,62,1.08,0.72,1.44,20,75.2,1018.22,0,0,0,0,0.027847
2020/04/22 01:50:00.000,n,66,1.44,1.08,1.8,20,75.1,1018.22,0,0,0,0,0.030479
2020/04/22 01:51:00.000,n,212,0.72,0,1.44,20,75.2,1018.22,0,0,0,0,0.030479
2020/04/22 01:52:00.000,n,98,1.44,1.44,1.8,20.1,75.2,1018.12,0,0,0,0,0.02697
2020/04/22 01:53:00.008,n,98,1.08,1.08,1.44,20.1,75.2,1018.12,0,0,0,0,0.032196
2020/04/22 01:54:00.005,n,112,1.44,1.08,1.8,20.1,75.2,1018.12,0,0,0,0,0.031319
2020/04/22 01:55:00.002,n,133,0.36,0,0.72,20.1,75.2,1018.12,0,0,0,0,0.027847
2020/04/22 01:56:00.000,n,211,0.72,0,1.8,20.1,75.3,1018.12,0,0,0,0,0.029602
2020/04/22 01:57:00.014,n,261,0.72,0.36,0.72,20.1,75.2,1018.12,0,0,0,0,0.028725
2020/04/22 01:58:00.000,n,88,0.72,0.36,1.08,20.1,75.3,1018.12,0,0,0,0,0.029602
2020/04/22 01:59:00.000,n,137,0.72,0.36,1.08,20.1,75.2,1018.12,0,0,0,0,0.026131
2020/04/22 02:00:00.000,n,225,0.72,0.36,1.08,20.2,75.1,1018.12,0,0,0,0,0.027847
2020/04/22 02:01:00.002,n,56,0.36,0.36,1.08,20.2,74.9,1018.12,0,0,0,0,0.027847
2020/04/22 02:02:00.000,n,130,1.44,1.08,1.44,20.2,74.8,1018.12,0,0,0,0,0.027847
2020/04/22 02:03:00.000,n,232,0.72,0.36,1.08,20.2,74.9,1018.12,0,0,0,0,0.028725
2020/04/22 02:04:00.010,n,147,1.8,1.44,2.16,20.2,74.6,1018.12,0,0,0,0,0.027847
2020/04/22 02:05:00.007,n,172,1.44,0.72,2.16,20.2,74.1,1018.22,0,0,0,0,0.031319
2020/04/22 02:06:00.004,n,152,2.88,2.52,3.24,20.1,73.7,1018.22,0,0,0,0,0.028725
2020/04/22 02:07:00.001,n,157,3.6,3.24,3.96,20.1,73.2,1018.12,0,0,0,0,0.028725
2020/04/22 02:08:00.000,n,168,3.6,3.24,3.6,20,73.1,1018.12,0,0,0,0,0.032196
2020/04/22 02:09:00.000,n,156,2.88,1.08,3.96,20,73.2,1018.12,0,0,0,0,0.029602
2020/04/22 02:10:00.000,n,182,3.96,3.96,4.32,20,73.3,1018.02,0,0,0,0,0.033073
2020/04/22 02:11:00.005,n,174,3.96,3.6,4.32,20,73.1,1018.02,0,0,0,0,0.033073
2020/04/22 02:12:00.002,n,215,1.44,0.72,1.8,20,73.2,1018.02,0,0,0,0,0.034828
2020/04/22 02:13:00.000,n,251,2.52,2.52,2.88,20,73.4,1018.02,0,0,0,0,0.036545
2020/04/22 02:14:00.011,n,252,1.44,0.72,1.8,20,73.4,1018.02,0,0,0,0,0.034828
2020/04/22 02:15:00.008,n,114,2.16,1.8,2.16,20,73.1,1018.02,0,0,0,0,0.031319
2020/04/22 02:16:00.000,n,160,1.44,0.72,1.8,20.1,72.6,1018.02,0,0,0,0,0.031319
2020/04/22 02:17:00.002,n,229,1.8,1.44,1.8,20.1,72.4,1018.02,0,0,0,0,0.029602
2020/04/22 02:18:00.000,n,260,2.88,2.88,3.24,20.1,72.3,1018.02,0,0,0,0,0.033951
2020/04/22 02:19:00.000,n,192,1.8,1.08,2.52,20.1,72.5,1018.02,0,0,0,0,0.034828
2020/04/22 02:20:00.000,n,266,1.08,0.72,1.44,20.1,72.3,1018.02,0,0,0,0,0.031319
2020/04/22 02:21:00.007,n,245,2.88,2.52,2.88,20.1,72.6,1018.02,0,0,0,0,0.036545
2020/04/22 02:22:00.005,n,260,2.16,0.72,2.52,20.1,72.7,1018.02,0,0,0,0,0.035706
2020/04/22 02:23:00.001,n,128,1.08,0.72,2.16,20.1,72.5,1018.12,0,0,0,0,0.035706
2020/04/22 02:24:00.015,n,159,2.88,2.52,3.6,20.1,72.9,1018.12,0,0,0,0,0.035706
2020/04/22 02:25:00.000,n,210,1.08,0.72,1.8,20.1,73,1018.12,0,0,0,0,0.034828
2020/04/22 02:26:00.000,n,169,4.68,0.36,6.48,20.1,73,1018.12,0,0,0,0,0.035706
2020/04/22 02:27:00.000,n,160,5.4,4.68,5.76,20.1,73.5,1018.12,0,0,0,0,0.035706
2020/04/22 02:28:00.004,n,141,1.08,0.72,2.16,20.1,73.7,1018.12,0,0,0,0,0.040054
2020/04/22 02:29:00.001,n,147,4.32,4.32,5.04,20.1,73.5,1018.12,0,0,0,0,0.034828
2020/04/22 02:30:00.000,n,277,1.08,0.36,2.16,20.1,73.7,1018.12,0,0,0,0,0.042648
2020/04/22 02:31:00.012,n,150,1.8,1.44,2.16,20.1,73.7,1018.12,0,0,0,0,0.036545
2020/04/22 02:32:00.009,n,146,1.8,0.36,2.52,20.1,73.7,1018.12,0,0,0,0,0.036545
2020/04/22 02:33:00.007,n,126,2.52,2.16,2.88,20.1,73.6,1018.12,0,0,0,0,0.037422
2020/04/22 02:34:00.000,n,127,2.52,2.16,3.24,20,73.5,1018.12,0,0,0,0,0.033073
2020/04/22 02:35:00.000,n,187,0.36,0.36,0.72,20,73.7,1018.12,0,0,0,0,0.032196
2020/04/22 02:36:00.000,n,208,1.44,1.08,2.16,20,73.8,1018.02,0,0,0,0,0.038338
2020/04/22 02:37:00.000,n,141,2.16,0.72,2.88,20,73.7,1018.02,0,0,0,0,0.031319
2020/04/22 02:38:00.008,n,161,0.36,0,0.72,20,73.8,1018.02,0,0,0,0,0.034828
2020/04/22 02:39:00.005,n,151,1.44,0.72,1.8,20,73.7,1018.02,0,0,0,0,0.039177
2020/04/22 02:40:00.002,n,130,1.44,1.08,1.8,20,73.6,1017.92,0,0,0,0,0.039177
2020/04/22 02:41:00.000,n,224,0.72,0.36,1.08,20,73.6,1018.02,0,0,0,0,0.033951
2020/04/22 02:42:00.011,n,247,1.44,1.08,2.16,20,73.4,1017.92,0,0,0,0,0.037422
2020/04/22 02:43:00.000,n,205,0.36,0,1.08,20,73.1,1017.92,0,0,0,0,0.034828
2020/04/22 02:44:00.000,n,245,1.44,1.08,1.44,20,73.2,1017.92,0,0,0,0,0.037422
2020/04/22 02:45:00.002,n,212,0.72,0.36,1.08,20,73.5,1017.92,0,0,0,0,0.035706
2020/04/22 02:46:00.000,n,149,1.8,1.08,2.16,20,73.5,1017.92,0,0,0,0,0.039177
2020/04/22 02:47:00.000,n,147,1.44,0.72,2.52,20,73.5,1017.82,0,0,0,0,0.033951
2020/04/22 02:48:00.009,n,135,2.16,1.8,2.16,20,73.5,1017.82,0,0,0,0,0.037422
2020/04/22 02:49:00.006,n,156,2.52,2.16,2.52,20,72.9,1017.82,0,0,0,0,0.038338
2020/04/22 02:50:00.003,n,136,1.08,0.72,1.8,19.9,72.7,1017.82,0,0,0,0,0.036545
2020/04/22 02:51:00.000,n,186,0.72,0.36,1.08,19.9,72.4,1017.82,0,0,0,0,0.040054
2020/04/22 02:52:00.000,n,161,1.8,1.8,2.16,19.9,71.3,1017.72,0,0,0,0,0.036545
2020/04/22 02:53:00.000,n,178,5.04,4.68,5.76,19.8,71.6,1017.72,0,0,0,0,0.033951
2020/04/22 02:54:00.000,n,166,4.68,3.6,5.4,19.8,71.5,1017.72,0,0,0,0,0.033951
2020/04/22 02:55:00.005,n,207,1.08,0.36,2.16,19.9,71.6,1017.82,0,0,0,0,0.035706
2020/04/22 02:56:00.002,n,252,2.52,1.8,2.88,19.9,71.7,1017.82,0,0,0,0,0.039177
2020/04/22 02:57:00.000,n,275,1.8,1.44,2.16,19.9,71.9,1017.72,0,0,0,0,0.037422
2020/04/22 02:58:00.000,n,199,1.44,0.72,1.8,19.9,72.4,1017.82,0,0,0,0,0.033951
2020/04/22 02:59:00.009,n,66,0.72,0.36,1.08,19.9,72.3,1017.82,0,0,0,0,0.033951
2020/04/22 03:00:00.006,n,277,0.36,0,0.72,20,72.3,1017.82,0,0,0,0,0.037422
2020/04/22 03:01:00.000,n,95,0.36,0,0.72,20,72.4,1017.82,0,0,0,0,0.040054
2020/04/22 03:02:00.000,n,219,0.72,0.36,1.08,20,72.2,1017.82,0,0,0,0,0.034828
2020/04/22 03:03:00.000,n,187,1.08,0.72,1.08,20,72.1,1017.82,0,0,0,0,0.033073
2020/04/22 03:04:00.000,n,174,2.52,2.16,3.24,20,72.2,1017.82,0,0,0,0,0.033951
2020/04/22 03:05:00.007,n,190,1.8,0.72,2.16,20,72.2,1017.82,0,0,0,0,0.037422
2020/04/22 03:06:00.004,n,169,2.16,1.44,3.24,20,72.4,1017.82,0,0,0,0,0.036545
2020/04/22 03:07:00.001,n,164,2.88,2.16,3.6,19.9,72.6,1017.82,0,0,0,0,0.038338
2020/04/22 03:08:00.000,n,193,1.8,1.44,2.16,19.9,72.7,1017.82,0,0,0,0,0.036545
2020/04/22 03:09:00.011,n,293,1.08,1.08,1.44,19.9,72.8,1017.82,0,0,0,0,0.033951
2020/04/22 03:10:00.000,n,109,2.16,0.72,3.24,19.9,73.2,1017.82,0,0,0,0,0.039177
2020/04/22 03:11:00.000,n,149,1.44,1.08,2.16,19.9,73.3,1017.82,0,0,0,0,0.034828
2020/04/22 03:12:00.002,n,154,1.8,0.72,2.16,19.9,73.4,1017.82,0,0,0,0,0.032196
2020/04/22 03:13:00.000,n,217,0.72,0.36,1.08,19.9,73.7,1017.82,0,0,0,0,0.034828
2020/04/22 03:14:00.000,n,142,3.6,2.88,4.32,19.9,73.9,1017.82,0,0,0,0,0.030479
2020/04/22 03:15:00.009,n,127,1.44,0.72,3.6,19.9,74.2,1017.82,0,0,0,0,0.038338
2020/04/22 03:16:00.006,n,147,3.96,3.24,4.68,19.9,74.5,1017.82,0,0,0,0,0.033951
2020/04/22 03:17:00.003,n,154,3.96,2.88,4.32,19.8,74.7,1017.82,0,0,0,0,0.034828
2020/04/22 03:18:00.001,n,173,7.2,6.84,7.2,19.8,74.9,1017.82,0,0,0,0,0.035706
2020/04/22 03:19:00.000,n,158,4.68,4.32,4.68,19.8,75,1017.82,0,0,0,0,0.032196
2020/04/22 03:20:00.000,n,185,3.24,2.16,3.6,19.7,75.2,1017.82,0,0,0,0,0.033951
2020/04/22 03:21:00.000,n,189,3.96,3.6,4.68,19.7,75.3,1017.82,0,0,0,0,0.035706
2020/04/22 03:22:00.004,n,178,2.52,1.08,3.24,19.7,75.4,1017.92,0,0,0,0,0.029602
2020/04/22 03:23:00.002,n,238,2.52,2.16,2.52,19.7,75.3,1017.92,0,0,0,0,0.030479
2020/04/22 03:24:00.000,n,273,2.16,1.8,2.52,19.7,76,1017.92,0,0,0,0,0.030479
2020/04/22 03:25:00.012,n,280,1.8,1.44,2.16,19.8,76.3,1017.92,0,0,0,0,0.032196
2020/04/22 03:26:00.009,n,51,1.08,0.36,1.8,19.8,75.8,1017.92,0,0,0,0,0.030479
2020/04/22 03:27:00.006,n,185,1.44,0.72,1.8,19.8,75.4,1017.92,0,0,0,0,0.026131
2020/04/22 03:28:00.000,n,316,1.08,0.72,1.44,19.8,75.2,1017.92,0,0,0,0,0.029602
2020/04/22 03:29:00.000,n,280,2.88,1.8,3.6,19.8,75.5,1017.92,0,0,0,0,0.026131
2020/04/22 03:30:00.000,n,239,0.72,0.36,1.44,19.8,75.1,1017.92,0,0,0,0,0.029602
2020/04/22 03:31:00.000,n,256,3.6,3.6,3.96,19.7,75,1017.92,0,0,0,0,0.027847
2020/04/22 03:32:00.008,n,250,3.24,2.88,3.6,19.7,75,1017.92,0,0,0,0,0.026131
2020/04/22 03:33:00.006,n,237,1.08,0.72,1.44,19.7,75.3,1017.92,0,0,0,0,0.029602
2020/04/22 03:34:00.003,n,249,1.8,1.08,2.16,19.7,75.3,1017.92,0,0,0,0,0.024376
2020/04/22 03:35:00.000,n,279,3.96,3.6,4.32,19.7,75.6,1017.92,0,0,0,0,0.022621
2020/04/22 03:36:00.014,n,263,2.52,2.16,2.88,19.7,75.3,1017.92,0,0,0,0,0.020905
2020/04/22 03:37:00.000,n,338,1.08,0.72,1.8,19.7,75.4,1018.02,0,0,0,0,0.020027
2020/04/22 03:38:00.000,n,267,2.16,1.8,2.16,19.6,75.3,1018.02,0,0,0,0,0.024376
2020/04/22 03:39:00.000,n,252,1.44,1.08,1.8,19.6,75.2,1018.02,0,0,0,0,0.020905
2020/04/22 03:40:00.002,n,144,1.8,1.44,2.16,19.6,75.3,1018.02,0,0,0,0,0.025253
2020/04/22 03:41:00.000,n,181,2.88,2.16,3.24,19.6,75.1,1018.02,0,0,0,0,0.024376
2020/04/22 03:42:00.000,n,186,2.88,2.52,3.24,19.6,75.2,1018.02,0,0,0,0,0.022621
2020/04/22 03:43:00.009,n,129,1.8,1.08,2.52,19.6,75.3,1018.02,0,0,0,0,0.020027
2020/04/22 03:44:00.006,n,51,1.8,0.36,3.24,19.6,75.5,1018.02,0,0,0,0,0.026131
2020/04/22 03:45:00.004,n,348,1.08,0.36,1.44,19.6,75.4,1018.02,0,0,0,0,0.023537
2020/04/22 03:46:00.001,n,53,1.8,1.08,2.16,19.6,75.4,1018.02,0,0,0,0,0.01915
2020/04/22 03:47:00.000,n,61,1.8,1.44,2.16,19.6,75.3,1018.02,0,0,0,0,0.020905
2020/04/22 03:48:00.000,n,187,1.08,0.72,1.44,19.6,75.3,1018.02,0,0,0,0,0.016556
2020/04/22 03:49:00.000,n,233,1.08,0.72,1.08,19.5,75.3,1018.02,0,0,0,0,0.024376
2020/04/22 03:50:00.004,n,133,2.16,1.8,2.88,19.5,75.3,1018.02,0,0,0,0,0.018272
2020/04/22 03:51:00.001,n,71,1.44,1.08,2.16,19.5,74.9,1018.02,0,0,0,0,0.016556
2020/04/22 03:52:00.000,n,213,2.16,1.8,3.24,19.5,74.8,1018.02,0,0,0,0,0.016556
2020/04/22 03:53:00.011,n,186,4.32,3.24,5.04,19.4,74.8,1018.02,0,0,0,0,0.020905
2020/04/22 03:54:00.008,n,200,1.44,1.08,1.8,19.4,74.9,1018.02,0,0,0,0,0.018272
2020/04/22 03:55:00.000,n,294,1.08,0.72,1.44,19.4,74.9,1018.02,0,0,0,0,0.026093
2020/04/22 03:56:00.001,n,187,2.88,2.52,3.6,19.4,75,1018.12,0,0,0,0,0.032158
2020/04/22 03:57:00.000,n,138,2.88,2.52,3.24,19.4,74.9,1018.12,0,0,0,0,0.031319
2020/04/22 03:58:00.000,n,162,4.68,2.16,6.12,19.4,74.9,1018.12,0,0,0,0,0.031319
2020/04/22 03:59:00.009,n,208,2.52,2.16,2.52,19.4,75,1018.12,0,0,0,0,0.033035
2020/04/22 04:00:00.005,n,190,2.88,2.16,3.6,19.4,75,1018.12,0,0,0,0,0.029564
2020/04/22 04:01:00.002,n,131,2.88,2.52,3.6,19.4,75.1,1018.12,0,0,0,0,0.033913
2020/04/22 04:02:00.000,n,148,3.6,2.88,3.96,19.4,75.1,1018.12,0,0,0,0,0.026093
2020/04/22 04:03:00.012,n,118,0.72,0.36,0.72,19.4,75.3,1018.12,0,0,0,0,0.027809
2020/04/22 04:04:00.000,n,159,2.16,1.44,2.52,19.4,75.2,1018.12,0,0,0,0,0.026093
2020/04/22 04:05:00.000,n,176,2.16,1.08,3.6,19.4,75.2,1018.12,0,0,0,0,0.032158
2020/04/22 04:06:00.003,n,145,5.04,3.6,6.48,19.4,75.2,1018.12,0,0,0,0,0.031319
2020/04/22 04:07:00.000,n,167,5.04,4.32,7.2,19.3,75.2,1018.02,0,0,0,0,0.024338
2020/04/22 04:08:00.000,n,90,1.08,0.36,1.8,19.3,75.3,1018.02,0,0,0,0,0.024338
2020/04/22 04:09:00.000,n,139,5.4,4.68,6.48,19.3,75.3,1018.02,0,0,0,0,0.025215
2020/04/22 04:10:00.008,n,158,3.24,1.44,5.04,19.3,75.3,1018.02,0,0,0,0,0.026932
2020/04/22 04:11:00.005,n,219,1.44,1.08,1.8,19.3,75.4,1018.02,0,0,0,0,0.029564
2020/04/22 04:12:00.002,n,64,0.72,0.36,1.8,19.3,75.4,1018.02,0,0,0,0,0.026093
2020/04/22 04:13:00.001,n,190,2.16,1.8,2.52,19.3,75.3,1018.02,0,0,0,0,0.026093
2020/04/22 04:14:00.000,n,217,1.8,1.44,2.16,19.3,75.3,1018.02,0,0,0,0,0.027809
2020/04/22 04:15:00.000,n,47,0.36,0,0.72,19.3,75.5,1018.02,0,0,0,0,0.026093
2020/04/22 04:16:00.000,n,133,1.8,1.08,2.88,19.3,75.3,1018.02,0,0,0,0,0.022583
2020/04/22 04:17:00.005,n,194,2.52,2.16,2.88,19.3,75.2,1018.02,0,0,0,0,0.026093
2020/04/22 04:18:00.003,n,160,5.04,4.68,5.4,19.3,75.3,1018.02,0,0,0,0,0.029564
2020/04/22 04:19:00.000,n,158,2.88,1.08,4.32,19.3,75.2,1018.02,0,0,0,0,0.033073
2020/04/22 04:20:00.013,n,119,2.16,1.08,3.24,19.3,75.4,1018.02,0,0,0,0,0.033073
2020/04/22 04:21:00.011,n,138,2.88,2.52,3.24,19.3,75.4,1018.02,0,0,0,0,0.031319
2020/04/22 04:22:00.000,n,73,1.08,0.36,2.52,19.3,75.4,1018.02,0,0,0,0,0.029564
2020/04/22 04:23:00.000,n,132,2.16,0.72,3.24,19.3,75.5,1018.02,0,0,0,0,0.031319
2020/04/22 04:24:00.002,n,147,7.2,5.76,8.28,19.3,75.5,1018.02,0,0,0,0,0.030441
2020/04/22 04:25:00.000,n,167,2.88,2.52,3.6,19.2,75.6,1018.02,0,0,0,0,0.032196
2020/04/22 04:26:00.000,n,140,2.88,2.16,3.6,19.2,75.7,1018.02,0,0,0,0,0.032196
2020/04/22 04:27:00.010,n,149,3.24,2.52,4.68,19.2,75.7,1018.02,0,0,0,0,0.033073
2020/04/22 04:28:00.007,n,189,2.16,2.16,2.88,19.2,75.8,1018.02,0,0,0,0,0.028725
2020/04/22 04:29:00.004,n,137,2.52,1.08,3.6,19.2,75.7,1018.02,0,0,0,0,0.026093
2020/04/22 04:30:00.002,n,99,1.44,0.72,1.8,19.2,75.7,1018.02,0,0,0,0,0.028725
2020/04/22 04:31:00.000,n,146,3.6,2.52,3.6,19.2,75.7,1018.02,0,0,0,0,0.031319
2020/04/22 04:32:00.000,n,177,3.6,3.24,3.96,19.2,75.7,1018.02,0,0,0,0,0.023499
2020/04/22 04:33:00.000,n,121,1.8,1.08,2.52,19.2,75.7,1017.92,0,0,0,0,0.028725
2020/04/22 04:34:00.000,n,196,3.96,3.24,4.32,19.2,75.7,1017.92,0,0,0,0,0.026093
2020/04/22 04:35:00.004,n,206,2.52,2.52,2.88,19.2,75.7,1017.92,0,0,0,0,0.028725
2020/04/22 04:36:00.001,n,247,1.8,0.72,2.52,19.2,75.7,1018.02,0,0,0,0,0.028725
2020/04/22 04:37:00.000,n,251,2.52,2.16,3.24,19.2,75.7,1018.02,0,0,0,0,0.02697
2020/04/22 04:38:00.011,n,285,5.04,3.96,5.76,19.2,75.7,1018.02,0,0,0,0,0.030441
2020/04/22 04:39:00.009,n,272,4.32,3.96,4.68,19.2,75.6,1018.02,0,0,0,0,0.025215
2020/04/22 04:40:00.000,n,269,2.52,2.52,2.88,19.2,75.6,1018.12,0,0,0,0,0.032196
2020/04/22 04:41:00.002,n,261,3.96,3.24,4.68,19.2,75.6,1018.12,0,0,0,0,0.029564
2020/04/22 04:42:00.000,n,248,0.72,0.36,1.08,19.2,75.6,1018.12,0,0,0,0,0.027847
2020/04/22 04:43:00.000,n,289,3.24,2.16,3.6,19.2,75.7,1018.12,0,0,0,0,0.025215
2020/04/22 04:44:00.000,n,281,1.08,0.72,1.44,19.2,75.7,1018.22,0,0,0,0,0.027847
2020/04/22 04:45:00.007,n,269,1.8,1.44,2.16,19.2,75.7,1018.22,0,0,0,0,0.024338
2020/04/22 04:46:00.005,n,291,4.32,3.6,4.68,19.2,76.4,1018.22,0,0,0,0,0.025215
2020/04/22 04:47:00.002,n,197,0.72,0.36,1.08,19.2,75.7,1018.22,0,0,0,0,0.02697
2020/04/22 04:48:00.015,n,248,1.44,0.72,1.8,19.2,75.6,1018.22,0,0,0,0,0.027847
2020/04/22 04:49:00.000,n,203,1.8,1.44,1.8,19.2,75.7,1018.22,0,0,0,0,0.025215
2020/04/22 04:50:00.000,n,222,2.52,2.16,3.6,19.2,75.3,1018.22,0,0,0,0,0.025215
2020/04/22 04:51:00.000,n,231,3.24,2.88,3.96,19.2,75.2,1018.22,0,0,0,0,0.028725
2020/04/22 04:52:00.005,n,260,2.88,2.88,2.88,19.2,75.2,1018.22,0,0,0,0,0.02697
2020/04/22 04:53:00.002,n,206,2.52,1.8,3.6,19.2,75.3,1018.22,0,0,0,0,0.026093
2020/04/22 04:54:00.000,n,190,1.44,1.08,2.16,19.2,75.3,1018.22,0,0,0,0,0.019989
2020/04/22 04:55:00.012,n,109,0.36,0.36,0.72,19.2,75.5,1018.22,0,0,0,0,0.021744
2020/04/22 04:56:00.009,n,98,1.8,1.44,2.16,19.2,75.6,1018.22,0,0,0,0,0.022621